Orbital Elements at Epoch 2459200.5 (2020-Dec-17.0) TDB
Reference: JPL 37 (heliocentric ecliptic J2000)
Element | Value | Uncertainty (1-sigma) | Units |
e | .2542757006472229 | 2.1266e-08 | |
a | 2.562649374615191 | 1.0547e-08 | au |
q | 1.911029909371746 | 5.592e-08 | au |
i | 25.01348497551222 | 7.2245e-07 | deg |
node | 110.7383892532883 | 3.8012e-06 | deg |
peri | 117.0635532735189 | 7.3703e-06 | deg |
M | 199.1525480353179 | 8.9778e-06 | deg |
tp | 2459869.989693730208 (2022-Oct-17.48969373) | 4.03e-05 | TDB |
period | 1498.415341983757 4.10 | 9.2508e-06 2.533e-08 | d yr |
n | .2402538134209136 | 1.4833e-09 | deg/d |
Q | 3.214268839858636 | 1.3229e-08 | au |
|
| | Orbit Determination Parameters
Additional Information
|